Flight Track Log - Related Links

Times and Time Zones

All times are in EDT time to prevent confusion due to time zone crossing. See the LIA553 flight status page for this flight to view local times or setup timezone preferences in your user account.

Time Position Orientation Groundspeed Altitude Reporting Facility
EDT Latitude Longitude Course Direction KTS MPH feet Rate Location/Type
Wed 02:12:57 PM 18.3000 -64.9833 90° East 140 161 1,400  Level San Juan Center
Wed 02:13:57 PM 18.3000 -64.9333 90° East 140 161 2,900 1,450 Climbing San Juan Center
Wed 02:14:57 PM 18.3000 -64.9000 90° East 160 184 4,300 1,190 Climbing San Juan Center
Wed 02:15:58 PM 18.3167 -64.8500 71° East 170 196 5,300 992 Climbing San Juan Center
Wed 02:16:58 PM 18.3167 -64.7833 90° East 200 230 6,300 1,000 Climbing San Juan Center
Wed 02:17:58 PM 18.3167 -64.7333 90° East 200 230 7,300 1,041 Climbing San Juan Center
Wed 02:18:59 PM 18.3167 -64.6667 90° East 200 230 8,400 1,041 Climbing San Juan Center
Wed 02:19:59 PM 18.3333 -64.6167 71° East 200 230 9,400 1,000 Climbing San Juan Center
Wed 02:20:59 PM 18.3333 -64.5500 90° East 220 253 10,400 793 Climbing San Juan Center
Wed 02:22:00 PM 18.3333 -64.4833 90° East 210 242 11,000 298 Climbing San Juan Center
Wed 02:23:00 PM 18.3333 -64.4167 90° East 250 288 11,000  Level San Juan Center
Wed 02:24:00 PM 18.3333 -64.3333 90° East 260 299 11,000  Level San Juan Center
Wed 02:25:01 PM 18.3333 -64.2667 90° East 270 311 11,000  Level San Juan Center
Wed 02:26:01 PM 18.3333 -64.1833 90° East 270 311 11,000  Level San Juan Center
Wed 02:27:01 PM 18.3333 -64.1000 90° East 260 299 11,000  Level San Juan Center
Wed 02:28:02 PM 18.3333 -64.0333 90° East 260 299 11,000  Level San Juan Center
Wed 02:29:02 PM 18.3500 -63.9500 78° East 260 299 11,000  Level San Juan Center
Wed 02:30:02 PM 18.3667 -63.8833 75° East 260 299 11,000 -199 Level San Juan Center
Wed 02:32:03 PM 18.3833 -63.7333 83° East 260 299 10,400 -497 Descending San Juan Center
Wed 02:33:03 PM 18.3833 -63.6500 90° East 260 299 9,500 -942 Descending San Juan Center
Wed 02:34:04 PM 18.3667 -63.5833 105° East 270 311 8,500 -992 Descending San Juan Center
Wed 02:35:04 PM 18.3333 -63.5000 113° Southeast 260 299 7,500 -1,000 Descending San Juan Center

Login

Don't have an account? Register now (free) for customized features, flight alerts, and more!